Regional Weather Roundup
Issued by NWS

Home | Current Version | Previous Version | Text Only | Print | Product List | Glossary On
Versions: 1 2 3 4 5 6 7 8 9 10 11 12 13 14 15 16 17 18 19 20 21 22 23 24 25 26 27 28 29 30 31 32 33 34 35 36 37 38 39 40 41 42 43 44 45 46 47 48 49 50
000
ASUS43 KDTX 030301
RWRMI
MICHIGAN HOURLY REGIONAL WEATHER ROUNDUP
NATIONAL WEATHER SERVICE DETROIT/PONTIAC MI
1000 PM EST MON MAR 02 2015

NOTE: "FAIR" INDICATES FEW OR NO CLOUDS BELOW 12,000 FEET WITH NO
SIGNIFICANT WEATHER AND/OR OBSTRUCTION TO VISIBILITY.

MIZ047>049-052>055-059>063-066>070-074>076-081>083-030400-
SOUTHEAST LOWER MICHIGAN

CITY           SKY/WX    TMP DP  RH WIND       PRES   REMARKS
ADRIAN         MOCLDY    18  11  74 S3        30.37F
ALMA           MOCLDY    18  12  76 CALM      30.34F
ANN ARBOR      MOCLDY    22  13  68 S5        30.36F WCI  16
BAD AXE        CLEAR      7   3  85 S3        30.36R
CARO           CLEAR     10   6  83 CALM      30.35F
DETROIT CITY   PTCLDY    23  12  62 SE3       30.37F
DETROIT        MOCLDY    23  13  65 S3        30.38F
FLINT          PTCLDY    16   8  71 S5        30.35F WCI   9
GROSSE ILE     MOCLDY    18  12  79 S5        30.37F WCI  11
HILLSDALE      MOCLDY    22  13  67 S5        30.32F WCI  16
HOWELL         MOCLDY    20  11  70 CALM      30.33F

CITY           SKY/WX    TMP DP  RH WIND       PRES   REMARKS
JACKSON        CLOUDY    24  13  62 S5        30.33F WCI  18
LAMBERTVILLE   MOCLDY    25  16  68 SW5       30.40R WCI  19
LANSING        CLOUDY    23  13  65 CALM      30.34F
LAPEER         FAIR       6   3  84 CALM      30.36S
MASON          CLOUDY    21  14  74 CALM      30.33F
MONROE         MOCLDY    19  14  79 CALM      30.36F
MT. CLEMENS    PTCLDY    12   8  84 NE5       30.35F WCI   4
PONTIAC        MOCLDY    17   9  70 CALM      30.34F
PORT HOPE        N/A     18   8  65 SW6       30.35R WCI  10
PORT HURON     CLEAR     16   9  73 CALM      30.39S
TRI CITIES     PTCLDY    21  10  62 S7        30.35F WCI  12
TROY           FAIR      23  11  61 CALM      30.38F
SAGINAW HB     PTCLDY    18  10  73 S5        30.36S WCI  11
$$
MIZ043>046-050>051-056>058-064>065-071>073-077>080-030400-
SOUTHWEST LOWER MICHIGAN

CITY           SKY/WX    TMP DP  RH WIND       PRES   REMARKS
BATTLE CREEK   CLOUDY    26  14  60 S5        30.34F WCI  20
BENTON HARBOR  CLOUDY    23  17  78 SE5       30.35S WCI  17
BIG RAPIDS     MOCLDY    19   9  67 CALM      30.30F
COLDWATER      MOCLDY    23  13  66 S5        30.34S WCI  16
FREMONT        FAIR      20  10  66 CALM      30.32F
HOLLAND        CLOUDY    23  15  71 S5        30.35F WCI  17
GRAND RAPIDS   CLOUDY    23  13  65 S3        30.33F
IONIA          FAIR      22  15  74 CALM      30.32F
KALAMAZOO      CLOUDY    24  14  65 S6        30.34S WCI  17
LUDINGTON      MOCLDY    18  11  74 CALM      30.32F
MARSHALL       CLOUDY    23  13  67 S3        30.33F
MOUNT PLEASANT PTCLDY    22  12  65 SW5       30.33F WCI  16
MUSKEGON       CLOUDY    24  15  68 SE3       30.34F
SOUTH HAVEN    CLOUDY    25  16  70 SE3       30.34F
$$
MIZ016>042-030400-
NORTHERN LOWER MICHIGAN

CITY           SKY/WX    TMP DP  RH WIND       PRES   REMARKS
ALPENA         CLEAR      7   0  73 CALM      30.33F
BEAVER ISLAND  CLEAR     16   9  74 S3        30.30F
BELLAIRE       PTCLDY     4   1  88 CALM      30.33F
CADILLAC       PTCLDY     4  -2  77 CALM      30.27F
CHARLEVOIX     CLEAR      4   0  82 CALM      30.34F
FRANKFORT      PTCLDY     6   3  86 CALM      30.32F
GAYLORD        PTCLDY     3  -3  76 CALM      30.27F
GRAYLING       CLEAR     -1  -7  74 CALM      30.30F
HARBOR SPRINGS PTCLDY     6   1  80 CALM      30.31F
HOUGHTON LAKE  PTCLDY     8   0  69 CALM      30.30S
MANISTEE       PTCLDY    10   7  85 E3        30.31F
OSCODA         CLEAR     10   1  67 W3        30.34R
PELLSTON       PTCLDY     1  -3  83 CALM      30.32F
ROGERS CITY    CLEAR      7   2  78 CALM      30.33F
TRAVERSE CITY  PTCLDY     7   2  80 CALM      30.31F
$$
MIZ007>008-015-030400-
EASTERN UPPER MICHIGAN

CITY           SKY/WX    TMP DP  RH WIND       PRES   REMARKS
KINROSS        PTCLDY     3   1  92 SE6       30.29F WCI  -8
MACKINAC ISLAN CLEAR     15   6  67 S9        30.30S WCI   3
NEWBERRY       CLEAR     12   7  80 S8        30.26S WCI   0
S. S. MARIE    PTCLDY     5   0  79 CALM      30.29F
MUNISING         N/A     19   5  54 S6        30.24F WCI  11
$$
MIZ004>006-011>014-085-030400-
CENTRAL UPPER MICHIGAN

CITY           SKY/WX    TMP DP  RH WIND       PRES   REMARKS
MANISTIQUE     PTCLDY    21  15  76 S10G17    30.26F WCI  10
ESCANABA       CLEAR     19  12  73 S8        30.26F WCI   9
MENOMINEE      PTCLDY    19   7  58 S7        30.25F WCI  10
SAWYER-GWINN   CLEAR     16   7  67 S8        30.17F WCI   5
$$
MIZ001>003-009>011-084-030400-
WESTERN UPPER MICHIGAN

CITY           SKY/WX    TMP DP  RH WIND       PRES   REMARKS
IRON MOUNTAIN  PTCLDY    17   4  56 S6        30.17F WCI   9
HOUGHTON       CLEAR      7   3  84 E3        30.13F
COPPER HARBOR    N/A     19  11  70 SW10      30.16F WCI   7
IRONWOOD       PTCLDY    19   0  42 SW5       30.10F WCI  13
$$

ABBREVIATIONS USED IN REMARKS
   TC - TEMPERATURE IN CELSIUS
  WCI - WIND CHILL INDEX
   HX - HEAT INDEX
  VSB - VISIBILITY



USA.gov is the U.S. government's official web portal to all federal, state and local government web resources and services.